Weather History for PAEI - January, 2013

Change the Weather History Date:

Wednesday, January 16, 2013

  Actual Average Record
Temperature  
Mean Temperature -1 °F -  
Max Temperature 7 °F -3 °F 51 °F (2009)
Min Temperature -8 °F -18 °F -55 °F (1971)
Degree Days  
Heating Degree Days 66    
Moisture  
Dew Point -4 °F    
Average Humidity 82    
Maximum Humidity 85    
Minimum Humidity 77    
Precipitation  
Precipitation 0.00 in - - ()
Sea Level Pressure  
Sea Level Pressure 30.09 in    
Wind  
Wind Speed 1 mph (ENE)    
Max Wind Speed 6 mph    
Max Gust Speed -    
Visibility 8 miles    
Events Snow    
Averages and records for this station are not official NWS values.
T = Trace of Precipitation, MM = Missing Value Source: NWS Daily Summary

Daily Weather History Graph

Daily Weather History Graph

Search for Another Location

Airport or City:

Trip Planner

Search our weather history database for the weather conditions in past years. The results will help you decide how hot, cold, wet, or windy it might be!

Date:

Astronomy

Jan. 16, 2013 Rise Set
Actual Time 10:18 AM AKST 3:39 PM AKST
Civil Twilight 9:09 AM AKST 4:48 PM AKST
Nautical Twilight 8:04 AM AKST 5:53 PM AKST
Astronomical Twilight 7:05 AM AKST 6:52 PM AKST
Moon 10:26 AM AKST (1/16) No Moon Set
Length of Visible Light 7h 38m
Length of Day
5h 21m
Waxing Crescent, 29% of the Moon is Illuminated
Jan 16
Waxing Crescent
Jan 18
First Quarter
Jan 26
Full
Feb 3
Last Quarter
Feb 9
New

Hourly Weather History & Observations

Time (AKST) Temp. Windchill Dew Point Humidity Pressure Visibility Wind Dir Wind Speed Gust Speed Precip Events Conditions
12:55 AM -0.2 °F - -4.5 °F 82% 30.25 in 10.0 mi Calm Calm - N/A   Overcast
1:55 AM 0.7 °F - -3.6 °F 82% 30.25 in 10.0 mi Calm Calm - N/A   Mostly Cloudy
2:12 AM -0.4 °F -8.3 °F -5.8 °F 78% 30.25 in 3.0 mi SE 3.5 mph - N/A   Haze
2:13 AM -2.2 °F - -5.8 °F 85% 30.25 in 3.0 mi Calm Calm - N/A   Haze
2:55 AM 1.0 °F -10.3 °F -2.7 °F 84% 30.25 in 10.0 mi North 5.8 mph - N/A   Clear
3:55 AM -0.9 °F - -5.3 °F 82% 30.23 in 10.0 mi Calm Calm - N/A   Clear
4:55 AM -5.3 °F - -10.7 °F 77% 30.22 in 10.0 mi Calm Calm - N/A   Clear
5:55 AM -6.7 °F - -11.6 °F 79% 30.20 in 10.0 mi Calm Calm - N/A   Clear
6:49 AM -7.6 °F - -13.0 °F 77% 30.19 in 4.0 mi Calm Calm - N/A   Haze
6:53 AM -7.6 °F - -13.0 °F 77% 30.19 in 5.0 mi Calm Calm - N/A   Haze
6:55 AM -8.1 °F - -13.5 °F 77% 30.18 in 6.0 mi Calm Calm - N/A   Haze
7:55 AM -6.9 °F - -11.7 °F 79% 30.16 in 10.0 mi Calm Calm - N/A   Clear
8:55 AM -5.4 °F -14.1 °F -10.1 °F 80% 30.15 in 10.0 mi ESE 3.5 mph - N/A   Overcast
9:49 AM -4.0 °F - -9.4 °F 78% 30.14 in 2.5 mi Calm Calm - N/A   Haze
9:51 AM -4.0 °F - -9.4 °F 78% 30.14 in 10.0 mi Calm Calm - N/A   Mostly Cloudy
9:55 AM -4.7 °F - -9.4 °F 80% 30.14 in 10.0 mi Calm Calm - N/A   Mostly Cloudy
10:55 AM -2.4 °F -10.6 °F -6.7 °F 82% 30.12 in 9.0 mi North 3.5 mph - N/A   Mostly Cloudy
11:55 AM 0.3 °F - -4.0 °F 82% 30.09 in 10.0 mi Calm Calm - N/A   Mostly Cloudy
12:55 PM 0.5 °F - -3.8 °F 82% 30.07 in 10.0 mi Calm Calm - N/A   Overcast
1:55 PM 2.5 °F - -1.7 °F 83% 30.03 in 7.0 mi Calm Calm - N/A   Overcast
2:55 PM 3.2 °F - -0.6 °F 84% 30.01 in 10.0 mi Calm Calm - N/A   Overcast
3:55 PM 3.6 °F - -0.4 °F 84% 30.00 in 10.0 mi Calm Calm - N/A   Mostly Cloudy
4:55 PM 3.9 °F - 0.1 °F 84% 29.99 in 10.0 mi Calm Calm - N/A   Overcast
5:55 PM 5.4 °F - 1.6 °F 84% 29.96 in 10.0 mi Calm Calm - N/A   Overcast
6:55 PM 6.3 °F - 2.7 °F 85% 29.95 in 10.0 mi Calm Calm - N/A   Overcast
7:55 PM 6.4 °F - 2.8 °F 85% 29.93 in 10.0 mi Calm Calm - 0.00 in Snow Light Snow
8:14 PM 6.8 °F - 3.2 °F 85% 29.93 in 10.0 mi Calm Calm - N/A   Light Freezing Drizzle
8:36 PM 6.8 °F - 3.2 °F 85% 29.92 in 7.0 mi Calm Calm - N/A Snow Light Snow
8:55 PM 6.4 °F - 2.8 °F 85% 29.92 in 5.0 mi Calm Calm - 0.00 in Snow Light Snow
9:55 PM 6.6 °F - 3.0 °F 85% 29.90 in 4.0 mi Calm Calm - 0.00 in Snow Light Snow
10:55 PM 6.8 °F - 3.2 °F 85% 29.89 in 10.0 mi Calm Calm - 0.00 in Snow Light Snow
11:55 PM 7.0 °F - 3.4 °F 85% 29.87 in 3.0 mi Calm Calm - 0.00 in Snow Light Snow